Flag for U.S.A. Weather past 2 weeks in Casper, Wyoming, U.S.A.

Now
57 °F

Clear.


Feels Like: 55 °F
Forecast: 51 / 79 °F
Wind: 8 mph from West

Location: Natrona County International Airport

Current Time: Jun 2, 2015 at 12:01:39 AM

Latest Report: Jun 1, 2015 at 10:53 PM


Visibility: 10 mi

Pressure: 29.73 "Hg

Humidity: 67%

Dew point: 46 °F

Location of CasperLocation

Historic Weather in Casper — Graph

°F

Casper temperature yesterday

Maximum temperature yesterday: 83 °F (at 2:53 PM)
Minimum temperature yesterday: 49 °F (at 2:53 AM)
Average temperature yesterday: 66 °F

Past Weeks' High & Low Weather Summary

 TemperatureHumidityPressure
High83 °F (Jun 1, 2:53 PM)97% (May 23, 2:53 AM)30.34 "Hg (May 23, 2:53 AM)
Low31 °F (May 20, 12:53 AM)22% (Jun 1, 2:53 PM)29.73 "Hg (Jun 1, 3:53 PM)
Average51 °F75%30.00 "Hg
* Reported May 17 10:53 PM — Jun 1 10:53 PM, Casper, Weather by CustomWeather, © 2015

Note: Actual official high and low records may vary slightly from our data, if they occured in-between our weather recording intervals... More about our weather records

Advertising

Casper weather history for previous 24 hours

 ConditionsComfort  
Time TempWeatherWind HumidityBarometerVisibility
10:53 PM
Mon, Jun 1
57 °FClear.8 mph67%29.73 "Hg10 mi
8:53 PM66 °FSunny.12 mph42%29.74 "Hg10 mi
7:53 PM65 °FScattered clouds.5 mph51%29.76 "Hg10 mi
6:53 PM66 °FPartly sunny.7 mph54%29.80 "Hg10 mi
5:53 PM71 °FPartly sunny.13 mph31%29.80 "Hg10 mi
5:04 PM74 °FThunderstorms. Partly sunny.20 mph29%29.94 "Hg10 mi
4:53 PM75 °FPartly sunny.20 mph40%29.75 "Hg10 mi
3:53 PM83 °FSunny.3 mph23%29.73 "Hg10 mi
2:53 PM83 °FSunny.14 mph22%29.76 "Hg10 mi
1:53 PM82 °FSunny.18 mph24%29.79 "Hg10 mi
12:53 PM81 °FSunny.17 mph29%29.81 "Hg10 mi
11:53 AM78 °FSunny.21 mph32%29.83 "Hg10 mi
10:53 AM76 °FSunny.15 mph35%29.84 "Hg10 mi
9:53 AM73 °FSunny.16 mph38%29.85 "Hg10 mi
8:53 AM71 °FSunny.15 mph41%29.85 "Hg10 mi
7:53 AM64 °FSunny.7 mph65%29.86 "Hg10 mi
6:53 AM53 °FSunny.7 mph86%29.88 "Hg10 mi
5:53 AM50 °FClear.No wind89%29.88 "Hg10 mi
4:53 AM53 °FClear.8 mph83%29.85 "Hg10 mi
3:53 AM50 °FClear.5 mph89%29.87 "Hg10 mi
2:53 AM49 °FClear.5 mph97%29.89 "Hg10 mi
1:53 AM51 °FClear.5 mph92%29.89 "Hg10 mi
12:53 AM52 °FClear.5 mph89%29.89 "Hg10 mi
Weather by CustomWeather, © 2015

See weather overviewHow to use our weather pages